Regional Weather Roundup
Issued by NWS

Home | Current Version | Previous Version | Text Only | Print | Product List | Glossary On
Versions: 1 2 3 4 5 6 7 8 9 10 11 12 13 14 15 16 17 18 19 20 21 22 23 24 25 26 27 28 29 30 31 32 33 34 35 36 37 38 39 40 41 42 43 44 45 46 47 48 49 50
000
ASUS44 KEWX 181602
RWRTX
SOUTH TEXAS REGIONAL WEATHER ROUNDUP
NATIONAL WEATHER SERVICE AUSTIN/SAN ANTONIO TX
1100 AM CDT THU SEP 18 2014

NOTE: "FAIR" INDICATED FEW OR NO CLOUDS BELOW 12,000 FEET WITH NO
SIGNIFICANT WEATHER AND/OR OBSTRUCTIONS TO VISIBILITY.

* - THESE STATIONS ARE NOT NWS OR FAA STATIONS...AND ARE NOT SUBJECT
    TO NWS AND FAA QUALITY CONTROL.

TXZ171-172-183>190-181700-
TEXAS HILL COUNTRY AND EDWARDS PLATEAU

CITY           SKY/WX    TMP DP  RH WIND       PRES   REMARKS
JUNCTION       MOSUNNY   82  68  62 SW8       29.93F
*LLANO         PTSUNNY   82  72  69 SW6       29.95F
BURNET         PTSUNNY   79  71  76 SW3       29.95S
*HORSESHOE BAY PTSUNNY   79  72  79 CALM      29.92S
*KERRVILLE     PTSUNNY   79  70  74 S7        29.93F
*FREDERICKSBRG PTSUNNY   80  70  69 S6        29.93F
*ROCKSPRINGS   CLOUDY    75  70  83 SE7       29.98S
*BOERNE STAGE  PTSUNNY   84  72  65 S6        29.94R
*CASTROVILLE   MOSUNNY   82  70  66 S5        29.91S
HONDO          PTSUNNY   85  72  65 S10       29.91F HX  91
*UVALDE        CLOUDY    80  74  81 SE7       29.91S
DEL RIO        CLOUDY    79  72  79 SE10      29.88S
LAUGHLIN AFB   CLOUDY    77  73  88 S8        29.89F
CARRIZO SPRGS  CLOUDY    81  73  78 S7        29.86F
$$

TXZ173-191>194-202-209-217>225-228-181700-
CENTRAL AND SOUTH CENTRAL TEXAS

CITY           SKY/WX    TMP DP  RH WIND       PRES   REMARKS
GEORGETOWN     NOT AVBL
AUSTIN/BERGSTM CLOUDY    80  72  76 NW5       29.91R
AUSTIN/MABRY   CLOUDY    79  72  79 N5        29.93R
*AUSTIN/EXEC   CLOUDY    77  73  88 SW5       29.92R
*LAGO VISTA    PTSUNNY   80  71  74 SW6       29.94R
SAN MARCOS     NOT AVBL
NEW BRAUNFELS  MOSUNNY   82  73  74 S7        29.89R
RANDOLPH AFB   NOT AVBL
PT SAN ANTONIO NOT AVBL
SAN ANTONIO    PTSUNNY   84  72  67 MISG      29.90R
STINSON FIELD  PTSUNNY   85  73  67 S9        29.88R HX  91
*PLEASANTON    MOSUNNY   87  72  59 S10       29.88S HX  93
*LA GRANGE     PTSUNNY   77  74  90 CALM      29.90R
*GIDDINGS      PTSUNNY   77  71  80 W3        29.95R
*GONZALES      PTSUNNY   78  75  89 E3        29.90R
$$

TXZ163>164-176>182-195>201-210>213-226-227-235-181700-
SOUTHEAST TEXAS

CITY           SKY/WX    TMP DP  RH WIND       PRES   REMARKS
COLLEGE STN    PTSUNNY   77  74  90 E7        29.90S
*BRYAN         CLOUDY   N/A N/A N/A E5        29.90S
*CALDWELL      PTSUNNY   81  79  94 E5        29.93R
*CROCKETT      PTSUNNY   82  79  89 CALM      29.96R HX  93
*BRENHAM       PTSUNNY   79  76  90 W6        29.91S
HUNTSVILLE     CLOUDY    76  74  93 CALM      29.93S
CONROE         RAIN      74  73  97 SE3       29.93F FOG
HOUSTON BUSH   TSTM      75  74  96 SE9       29.92S
HOUSTON HOBBY  LGT RAIN  75  74  96 E5        29.90S FOG
*HOUSTON SW AP HVY RAIN N/A N/A N/A CALM      29.91S
PEARLAND       CLOUDY    77  75  93 E6        29.91S
HOUSTON HOOKS  HVY RAIN  73  73 100 E7        29.92R FOG
ELLINGTON FLD  NOT AVBL
SUGAR LAND     LGT RAIN  79  76  90 SE6       29.90S
*HOUSTON EXEC  CLOUDY    79  79 100 SW8       29.92R
*CLEVELAND MUN HVY RAIN  75  74  99 S12G17    29.96R VSB<1/4
*WHARTON       RAIN      78  73  83 SW9G17    29.90S
$$

TXZ214>216-236>238-181700-
THE UPPER TEXAS COAST

CITY           SKY/WX    TMP DP  RH WIND       PRES   REMARKS
*ORANGE        CLOUDY    78  78 100 E5        29.95R
PORT ARTHUR    CLOUDY    78  74  87 E6        29.93R
GALVESTON      CLOUDY    81  78  91 E3        29.91R
ANGLETON       CLOUDY    82  78  88 SE5       29.89F HX  91
*BAY CITY      LGT RAIN  84  84 100 S3        29.89S HX 104
PALACIOS       CLOUDY    85  77  77 S10       29.88R HX  95
$$

TXZ229>234-239>247-181700-
TEXAS COASTAL BEND AND RIO GRANDE PLAINS

CITY           SKY/WX    TMP DP  RH WIND       PRES   REMARKS
VICTORIA       CLOUDY    85  79  82 S6        29.89R HX  98
*BEEVILLE      CLOUDY    85  74  70 S16       29.87F HX  93
ROCKPORT       PTSUNNY   85  75  72 S8G24     29.87F HX  93
*PORT ARANSAS  CLOUDY    85  77  78 S13       29.88S HX  95
*PORT LAVACA   CLOUDY    83  77  81 SW9       29.88R HX  93
*INGLESIDE     MOSUNNY   89  75  63 S10       29.88S HX  98
CORPUS CHRISTI CLOUDY    86  76  71 S14       29.88S HX  96
CORPUS NAS     PTSUNNY   87  78  74 S13G21    29.88S HX 100
*ROBSTOWN      MOSUNNY   88  75  65 S12G18    29.88F HX  98
ALICE          PTSUNNY   86  77  74 S12       29.88S HX  97
KINGSVILLE NAS CLOUDY    87  78  74 S14       29.88S HX 100
COTULLA        MOSUNNY   85  72  65 S10G18    29.87F HX  91
*FAITH RANCH   CLOUDY    81  73  78 SE9       29.89R
LAREDO         PTSUNNY   85  74  69 S17       29.90S HX  92
$$

TXZ248>255-181700-
DEEP SOUTH TEXAS

CITY           SKY/WX    TMP DP  RH WIND       PRES   REMARKS
BROWNSVILLE    MOSUNNY   89  77  67 SE17      29.88S HX 101
PORT ISABEL    MOSUNNY   88  75  65 S17       29.87S HX  97
*SOUTH PADRE   MOSUNNY   88  77  70 S12       29.88S HX 100
HARLINGEN      PTSUNNY   88  77  69 S15       29.86S HX 100
*HEBBRONVILLE    N/A     81  74  78 S12       29.90S
MCALLEN        PTSUNNY   85  76  74 SE15      29.87F HX  94
*WESLACO       PTSUNNY   87  74  66 S16       29.87S HX  95
FALFURRIAS     PTSUNNY  N/A N/A N/A S13       29.88R
EDINBURG       MOSUNNY   87  75  67 S14       29.87S HX  97
*ZAPATA        NOT AVBL
$$

TXZ213>215-236>238-242>244-246-247-251-254-255-181700-
CMAN STATIONS

STATION/POSITION TIME  TEMP    WIND        PRES    WAVE
                       AIR SEA DIR/SP/G            HT/PER
                 (UTC) (F)     (DEG/KT/KT) (MB)    (FT/S)
SABINE PASS      1500   79 82   60/  5/  6 1013.4
SEA RIM ST PARK  1500   77      60/  5/  6 1013.8
NORTH JETTY/GLS  1500   81 83                N/A
EAGLE POINT      1500   78 81   90/  2/  3 1012.9
MORGANS POINT    1500   77     220/  2/  3 1012.9
MISSION/ARANSAS  1500          250/  5     1013.0
PORT O`CONNOR    1500          180/ 14/ 16   N/A
PORT ARANSAS     1500   84 84  200/  8/ 10 1012.5
MALAQUITE BEACH  1500   84 84  170/ 13/ 15 1011.3
BAFFIN BAY       1500   84 83  170/ 10/ 13 1011.9
PORT ISABEL      1500   85 83  150/ 13/ 19 1012.2
$$

GMZ080-GMZ150>470-181700-
OFFSHORE BUOY REPORTS

STATION/POSITION TIME  TEMP    WIND        PRES    WAVE
                       AIR SEA DIR/SP/G            HT/PER
                 (UTC) (F)     (DEG/KT/KT) (MB)    (FT/S)
20 E GALVESTON   1600   81 84  140/  4/  6 1012.6    1/ 6
90 E PT ARANSAS  1600   84 85  190/ 10/ 12 1012.7    2/ 4
35 NE PT MANSFLD 1500   84 84  170/ 10/ 14 1011.5    3/ 4
200 E PT ISABEL  1500   84 86  170/ 10/ 12 1012.9    2/ 4
$$



USA.gov is the U.S. government's official web portal to all federal, state and local government web resources and services.